Tracking 30262 objects as of 17-Feb-2025
HD Live streaming from Space Station
objects crossing your sky now

ONEWEB-0561

Track ONEWEB-0561 now!
10-day predictions
ONEWEB-0561 is classified as:


NORAD ID: 56710
Int'l Code: 2023-068A
Perigee: 1,187.8 km
Apogee: 1,190.1 km
Inclination: 87.9 °
Period: 109.0 minutes
Semi major axis: 7559 km
RCS: Unknown
Launch date: May 20, 2023
Source: United Kingdom (UK)
Launch site: AIR FORCE WESTERN TEST RANGE (AFWTR)
Your satellite tracking list
Your tracking list is empty




NASA's NSSDC Master Catalog

Two Line Element Set (TLE):
1 56710U 23068A   25047.89978061  .00000116  00000-0  25446-3 0  9996
2 56710  87.9284  11.0373 0001535 100.6262 259.5044 13.20770915 85440
Source of the keplerian elements: AFSPC